Regional Weather Roundup
Issued by NWS

Home | Current Version | Previous Version | Text Only | Print | Product List | Glossary On
Versions: 1 2 3 4 5 6 7 8 9 10 11 12 13 14 15 16 17 18 19 20 21 22 23 24 25 26 27 28 29 30 31 32 33 34 35 36 37 38 39 40 41 42 43 44 45 46 47 48 49 50
000
ASUS44 KFWD 061215
RWRTX
NORTH TEXAS HOURLY WEATHER ROUNDUP
NATIONAL WEATHER SERVICE FORT WORTH TX
700 AM CDT WED MAY 06 2015

NOTE: "FAIR" INDICATES FEW OR NO CLOUDS BELOW 12,000 FEET WITH NO
SIGNIFICANT WEATHER AND/OR OBSTRUCTIONS TO VISIBILITY.

TXZ118-119-061300-
DALLAS/FORT WORTH METROPLEX

CITY           SKY/WX    TMP DP  RH WIND       PRES   REMARKS
DFW AIRPORT    CLOUDY    68  66  93 S15       29.94R
6HR MIN TEMP:  68; 6HR MAX TEMP:  71; 6HR PCP:  0.43;

DALLAS LOVE    CLOUDY    69  66  90 SE17G24   29.95R
6HR MIN TEMP:  69; 6HR MAX TEMP:  72; 6HR PCP:  0.20;

FTW MEACHAM    CLOUDY    70  66  87 SE14G26   29.92S
6HR MIN TEMP:  70; 6HR MAX TEMP:  71; 6HR PCP:  0.54;

DAL-EXECUTIVE  CLOUDY    68  66  93 SE14G22   29.95R
6HR MIN TEMP:  68; 6HR MAX TEMP:  71; 6HR PCP:  0.11;

FTW-ALLIANCE   CLOUDY    69  66  90 SE15      29.92F
6HR MIN TEMP:  68; 6HR MAX TEMP:  70; 6HR PCP:  0.50;

FTW-NAS-JRB    CLOUDY    70  66  87 S16       29.93S
6HR MIN TEMP:  70; 6HR MAX TEMP:  72; 6HR PCP:  0.26;

FTW-SPINKS     MOCLDY    70  66  88 SE8       29.95S
ARLINGTON      CLOUDY    70  65  84 SE12      29.94S
6HR MIN TEMP:  70; 6HR MAX TEMP:  73; 6HR PCP:  0.41;

GRAND PRAIRIE  CLOUDY    70  70 100 SE9G21    29.95S
ADDISON        CLOUDY    70  66  88 SE18      29.96R
MESQUITE       CLOUDY    66  66 100 SE8       29.96S
LANCASTER      MOCLDY    67  64  91 SE12G17   29.96S
6HR MIN TEMP:  67; 6HR MAX TEMP:  70; 6HR PCP:  0.04;

$$

TXZ091>094-102>105-117-120-121-131>134-061300-
NORTH CENTRAL TEXAS

CITY           SKY/WX    TMP DP  RH WIND       PRES   REMARKS
SHRMAN/DENISON CLOUDY    69  68  94 SE14G24   29.97R
6HR MIN TEMP:  69; 6HR MAX TEMP:  71; 6HR PCP:  0.54;

GAINESVILLE    CLOUDY    67  65  93 SE14      29.95S
6HR MIN TEMP:  64; 6HR MAX TEMP:  68; 6HR PCP:  0.31;

BOWIE          CLOUDY    67  65  91 SE13G21   29.92R
6HR MIN TEMP:  67; 6HR MAX TEMP:  68;

BRIDGEPORT     CLOUDY    69  67  94 SE14      29.93R
6HR MIN TEMP:  67; 6HR MAX TEMP:  70;

DECATUR        CLOUDY    67  66  95 SE14G21   29.94R
6HR MIN TEMP:  67; 6HR MAX TEMP:  69; 6HR PCP:  0.02;

DENTON         CLOUDY    69  66  90 SE16      29.94R
6HR MIN TEMP:  68; 6HR MAX TEMP:  71; 6HR PCP:  0.26;

MCKINNEY       CLOUDY    68  66  93 SE15G23   29.96S
6HR MIN TEMP:  68; 6HR MAX TEMP:  71; 6HR PCP:  0.13;

GREENVILLE     MOCLDY    68  64  88 SE9       29.98R
ROCKWALL       CLOUDY    67  66  97 SE8       29.96R
6HR MIN TEMP:  67; 6HR MAX TEMP:  71; 6HR PCP:  0.08;

TERRELL        CLOUDY    70  66  87 SE9       29.97S
6HR MIN TEMP:  70; 6HR MAX TEMP:  74; 6HR PCP:  0.05;

WAXAHACHIE     CLOUDY    67  67 100 SE8       29.96R
6HR MIN TEMP:  67; 6HR MAX TEMP:  69; 6HR PCP:  0.05;

CLEBURNE       CLOUDY    68  68 100 SE13G20   29.96R
GRANBURY         N/A     70  66  87 SE14G21   29.94R
6HR MIN TEMP:  70; 6HR MAX TEMP:  71;

$$

TXZ083>090-098>101-113>116-127>130-139>142-154-155-061300-
WESTERN NORTH TEXAS

CITY           SKY/WX    TMP DP  RH WIND       PRES   REMARKS
WICHITA FALLS  MOCLDY    67  64  90 S16       29.88R
6HR MIN TEMP:  64; 6HR MAX TEMP:  68;

WF-KICKAPOO    MOCLDY    69  65  88 SE14G23   29.89R
6HR MIN TEMP:  69; 6HR MAX TEMP:  69;

VERNON         CLOUDY    67  63  85 S12       29.86R
6HR MIN TEMP:  60; 6HR MAX TEMP:  67;

ABILENE        MOCLDY    68  65  90 S10       29.90R
6HR MIN TEMP:  67; 6HR MAX TEMP:  68;

ABILENE-DYESS  MOCLDY    66  66 100 S8        29.88R
6HR MIN TEMP:  65; 6HR MAX TEMP:  67;

BRECKENRIDGE   CLOUDY    71  65  82 S10G17    29.90R
6HR MIN TEMP:  70; 6HR MAX TEMP:  71;

GRAHAM         CLOUDY    68  66  94 SE7       29.89R
6HR MIN TEMP:  67; 6HR MAX TEMP:  69;

MINERAL WELLS  CLOUDY    68  66  93 S14       29.91R
6HR MIN TEMP:  67; 6HR MAX TEMP:  68; 6HR PCP: TRACE;

STEPHENVILLE   CLOUDY    68  65  90 SE10G16   29.96R
6HR MIN TEMP:  67; 6HR MAX TEMP:  68; 6HR PCP:  0.01;

COMANCHE       CLOUDY    67  67 100 SE6       29.93R
6HR MIN TEMP:  67; 6HR MAX TEMP:  68; 6HR PCP:  0.01;

BROWNWOOD      CLOUDY    68  68 100 SE8       29.93R FOG
COLEMAN        CLOUDY    68  67  96 S8        29.92R
6HR MIN TEMP:  68; 6HR MAX TEMP:  69;

BRADY          CLOUDY    68  68 100 S8        29.92R
$$

TXZ143>147-156>162-174-175-061300-
CENTRAL TEXAS

CITY           SKY/WX    TMP DP  RH WIND       PRES   REMARKS
WACO           CLOUDY    67  65  93 SE8       29.95S
6HR MIN TEMP:  67; 6HR MAX TEMP:  72; 6HR PCP:  0.09;

WACO-TSTC      MOCLDY    68  68 100 SE8       29.95
WACO-MCGREGOR  MOCLDY    66  61  82 S13       29.96R
6HR MIN TEMP:  66; 6HR MAX TEMP:  72; 6HR PCP:  0.15;

HILLSBORO      CLEAR     68  65  90 SE13G18   29.95R
6HR MIN TEMP:  68; 6HR MAX TEMP:  69; 6HR PCP:  0.01;

CORSICANA      CLOUDY    69  66  90 SE10      29.99R
6HR MIN TEMP:  69; 6HR MAX TEMP:  71;

MEXIA          CLOUDY   N/A N/A N/A SE18      29.97R
                                      6HR PCP:  0.22;

HEARNE         RAIN      67  65  94 S7        30.01R
6HR MIN TEMP:  67; 6HR MAX TEMP:  72; 6HR PCP:  0.30;

CAMERON        CLOUDY    67  64  91 E6        29.99R
6HR MIN TEMP:  67; 6HR MAX TEMP:  72; 6HR PCP:  0.92;

TEMPLE         CLOUDY    66  61  82 E13       29.95S
6HR MIN TEMP:  64; 6HR MAX TEMP:  70; 6HR PCP:  0.41;

KILLEEN        CLOUDY    66  66 100 SE10      29.94S
6HR MIN TEMP:  66; 6HR MAX TEMP:  69; 6HR PCP:  0.03;

KILLEEN-SKYLRK MOCLDY    66  63  88 SE8       29.94S
6HR MIN TEMP:  66; 6HR MAX TEMP:  70; 6HR PCP:  0.44;

FORT HOOD      CLOUDY    66  66 100 SE10      29.94R
6HR MIN TEMP:  67; 6HR MAX TEMP:  69; 6HR PCP:  0.16;

GATESVILLE     MOCLDY    66  66 100 SE6       29.96R
HAMILTON       CLOUDY    68  68 100 SE14      29.94R FOG
6HR MIN TEMP:  68; 6HR MAX TEMP:  69; 6HR PCP:  0.03;

LAMPASAS       CLOUDY    71  69  95 SE6       29.94R
6HR MIN TEMP:  69; 6HR MAX TEMP:  71;

$$

TXZ095>097-106>112-122>126-135>138-148>153-164>167-061300-
EAST TEXAS

CITY           SKY/WX    TMP DP  RH WIND       PRES   REMARKS
PARIS          CLOUDY    66  61  82 MISG      30.01S
6HR MIN TEMP:  66; 6HR MAX TEMP:  70; 6HR PCP:  0.01;

SULPHUR SPRNGS MOCLDY    68  65  89 SE8       30.02S
6HR MIN TEMP:  68; 6HR MAX TEMP:  71;

MOUNT PLEASANT MOCLDY   N/A N/A N/A E5        30.05R
GILMER         PTCLDY    66  63  89 SE3       30.03R
6HR MIN TEMP:  66; 6HR MAX TEMP:  70;

MINEOLA        MOCLDY    68  66  94 SE3       30.01S
TYLER          CLOUDY    69  65  86 SE8       30.02R
6HR MIN TEMP:  68; 6HR MAX TEMP:  70; 6HR PCP: TRACE;

LONGVIEW       PTCLDY    67  63  87 E5        30.02R
6HR MIN TEMP:  66; 6HR MAX TEMP:  71;

MARSHALL       PTCLDY    68  65  90 CALM      30.07R
6HR MIN TEMP:  66; 6HR MAX TEMP:  73;

ATHENS         LGT RAIN  64  64 100 SE7       29.98F
PALESTINE      CLOUDY    68  67  98 E8        30.00F
JACKSONVILLE   CLOUDY    68  66  92 SE5       30.04R
HENDERSON      MOCLDY    66  64  93 E3        30.04R
6HR MIN TEMP:  65; 6HR MAX TEMP:  69; 6HR PCP:  0.01;

NACOGDOCHES    CLOUDY    66  63  88 SE6       30.02S
6HR MIN TEMP:  66; 6HR MAX TEMP:  70;

LUFKIN         CLOUDY    70  65  84 E9        30.01R
6HR MIN TEMP:  69; 6HR MAX TEMP:  72;

$$

SUPPLEMENTAL OBSERVATIONS (CENTRAL)

CITY           SKY/WX    TMP DP  RH WIND       PRES   REMARKS
LAKE TEXOMA      N/A     68  64  88 SE8         N/A
CADDO GRASSLND   N/A     66  63  88 S8          N/A
PAT MAYSE LAKE   N/A     66  64  94 E16         N/A
GREENVILLE       N/A     68  63  83 S8G17       N/A
CEDAR HILL       N/A     68  63  83 SE10        N/A
ATHENS           N/A     68  64  88 SE12        N/A
MCGREGOR         N/A     66  61  82 SE12        N/A
TEMPLE           N/A     66  63  88 E10         N/A


USA.gov is the U.S. government's official web portal to all federal, state and local government web resources and services.